AO-07 1 07530U 74089B 19115.84036948 -.00000031 00000-0 85046-4 0 9994 2 07530 101.7390 84.0650 0012563 90.7224 335.9917 12.53637688 33778 UO-11 1 14781U 84021B 19115.52296119 .00000069 00000-0 14601-4 0 9999 2 14781 097.6159 142.7889 0009656 131.1942 229.0107 14.83078675869739 LO-19 1 20442U 90005G 19115.83232797 .00000013 00000-0 20903-4 0 9996 2 20442 98.6444 57.9354 0010921 312.5065 47.5196 14.32923099528668 HUBBLE 1 20580U 90037B 19115.53115955 .00000463 00000-0 17313-4 0 9997 2 20580 028.4687 210.0685 0002452 262.4561 214.5799 15.09212700392618 MET-2/21 1 22782U 93055A 19115.37607076 .00000024 00000-0 80549-5 0 9993 2 22782 082.5521 206.1685 0021438 333.9067 094.3905 13.83818690295084 AO-27 1 22825U 93061C 19115.55555064 -.00000010 00000-0 14192-4 0 9993 2 22825 098.9009 102.9655 0008891 150.1862 209.9828 14.30056372333944 IO-26 1 22826U 93061D 19115.49987885 .00000006 00000-0 19958-4 0 9996 2 22826 098.8949 102.9068 0009595 140.3436 219.8449 14.30389792334153 FO-29 1 24278U 96046B 19115.42334409 -.00000027 00000-0 77172-5 0 9993 2 24278 098.5294 276.2157 0350675 020.9292 340.5805 13.53090697120216 NOAA-15 1 25338U 98030A 19115.52553044 .00000017 00000-0 25770-4 0 9999 2 25338 98.7514 136.8772 0011181 45.5952 314.6141 14.25903614 89533 GO-32 1 25397U 98043D 19115.78426996 -.00000005 00000-0 17231-4 0 9992 2 25397 98.6848 56.5938 0001456 145.1111 215.0163 14.23664031 80205 ISS 1 25544U 98067A 19115.90846843 .00001545 00000-0 32153-4 0 9992 2 25544 51.6409 261.0529 0001047 221.3935 283.2400 15.52591883167133 NO-44 1 26931U 01043C 19115.52676507 -.00000050 00000-0 12631-4 0 9997 2 26931 067.0495 143.4524 0006041 278.6368 081.4048 14.30539355917154 SO-50 1 27607U 02058C 19115.52994647 -.00000001 00000-0 20707-4 0 9992 2 27607 064.5552 215.1869 0082378 266.8338 092.3337 14.75538587878910 CO-55 1 27844U 03031E 19115.83178246 .00000040 00000-0 37930-4 0 9998 2 27844 98.6858 124.8468 0009809 179.9924 180.1256 14.22171938820631 CO-57 1 27848U 03031J 19115.24559782 .00000025 00000-0 31343-4 0 9990 2 27848 98.6937 124.7571 0009412 193.0518 167.0417 14.21767752820405 RS-22 1 27939U 03042A 19115.74694216 -.00000012 00000-0 65198-5 0 9993 2 27939 98.0310 252.6422 0011781 234.2430 125.7681 14.66771415832636 NOAA-18 1 28654U 05018A 19115.30233426 .00000041 00000-0 47435-4 0 9991 2 28654 99.1022 161.4397 0013617 334.3775 25.6720 14.12418327717843 CO-58 1 28895U 05043F 19115.36505806 .00000126 00000-0 32913-4 0 9995 2 28895 97.9505 259.9847 0017408 158.9956 201.1966 14.63652085719536 Falconsat-3 1 30776U 07006E 19115.35326995 .00002922 00000-0 82889-4 0 9999 2 30776 35.4352 77.4133 0003119 317.5192 42.5292 15.35955385672327 CO-65 1 32785U 08021C 19115.49617915 .00000204 00000-0 27663-4 0 9999 2 32785 097.5498 117.7685 0014702 083.6575 276.6317 14.88283863595554 AAUSAT2 1 32788U 08021F 19115.55824317 .00000132 00000-0 17130-4 0 9993 2 32788 097.5005 133.6769 0012530 029.0479 331.1437 14.94672003596731 DO-64 1 32789U 08021G 19115.56541584 .00001340 00000-0 93935-4 0 9996 2 32789 097.4697 166.8520 0010898 315.6892 044.3462 15.06821789598711 CO-66 1 32791U 08021J 19115.47137856 .00000220 00000-0 27653-4 0 9992 2 32791 097.5296 123.6586 0014840 062.3493 297.9230 14.90782816595958 RS-30 1 32953U 08025A 19115.72026537 .00000020 00000-0 75656-4 0 9991 2 32953 82.5061 178.3277 0018041 244.3552 115.5667 12.43088905495605 PRISM 1 33493U 09002B 19115.44045384 .00000685 00000-0 65613-4 0 9996 2 33493 098.1220 034.3384 0015291 008.1110 352.0354 14.96590008557023 NOAA-19 1 33591U 09005A 19115.56517357 .00000040 00000-0 46887-4 0 9992 2 33591 99.1781 105.3860 0014175 166.2825 193.8733 14.12346425526266 TISAT-1 1 36799U 10035E 19115.39323698 .00000227 00000-0 29095-4 0 9993 2 36799 98.1480 265.7699 0010896 262.8799 97.1179 14.91061272476674 JUGNU 1 37839U 11058B 19111.97086947 .00000319 00000-0 28352-4 0 9995 2 37839 019.9618 324.8036 0018946 050.9143 091.9649 14.12647981388978 SRMSAT 1 37841U 11058D 19112.07559017 .00000303 00000-0 21511-4 0 9996 2 37841 19.9732 19.7480 0011711 283.5499 203.9721 14.10629356388545 AO-71 1 37854U 11061E 19115.55932594 .00000756 00000-0 46784-4 0 9996 2 37854 101.7088 345.9796 0161040 226.5995 132.1716 15.06287255408393 HRBE 1 37855U 11061F 19115.56239497 .00001083 00000-0 62329-4 0 9997 2 37855 101.7225 343.3606 0173814 237.2279 121.2083 15.05291262408168 ALMASAT-1 1 38078U 12006B 19115.83558318 .00053256 47323-5 31970-3 0 9991 2 38078 69.4285 60.1327 0173209 345.4668 68.7418 15.59808625389080 HORYU-2 1 38340U 12025D 19115.39953224 .00000146 00000-0 29355-4 0 9991 2 38340 098.3350 152.3442 0010238 300.2651 059.7544 14.75696282362746 RS-40 1 38735U 12041C 19115.76193497 -.00000008 00000-0 -13143-3 0 9992 2 38735 82.4723 261.7036 0016856 356.5194 3.5771 12.42577859305852 BEESAT-3 1 39135U 13015F 19115.56765331 .00000846 00000-0 51958-4 0 9994 2 39135 064.8669 213.3191 0013170 320.5171 039.4994 15.17345364331647 BEESAT-2 1 39136U 13015G 19115.51865023 .00000966 00000-0 58797-4 0 9990 2 39136 064.8693 217.1314 0014163 312.1111 047.8810 15.16788836331563 ZACUBE-1 1 39417U 13066B 19115.52273942 .00000177 00000-0 28629-4 0 9997 2 39417 097.5659 132.0608 0058191 210.2609 149.5240 14.81088543293024 TRITON-1 1 39427U 13066M 19115.53348215 .00000224 00000-0 43823-4 0 9991 2 39427 097.6721 096.2714 0113374 339.6671 020.0039 14.67815345290203 GOMX-1 1 39430U 13066Q 19115.86420490 .00000189 00000-0 42717-4 0 9998 2 39430 97.7414 75.9812 0152873 64.0737 297.6142 14.59225801288756 LO-74 1 39440U 13066AA 19115.51132416 .00000170 00000-0 30799-4 0 9996 2 39440 097.6023 117.1493 0078721 260.8375 098.3924 14.75828154290787 AO-73 1 39444U 13066AE 19115.55311973 .00000233 00000-0 35019-4 0 9991 2 39444 097.5642 133.9809 0057480 204.1525 155.6992 14.81901378291321 SPROUT 1 39770U 14029E 19115.74265914 .00000753 00000-0 89587-4 0 9993 2 39770 97.8794 219.4068 0007681 263.3372 96.6965 14.87270893266813 DUCHIFAT-1 1 40021U 14033M 19115.37167632 .00000251 00000-0 31556-4 0 9992 2 40021 097.9232 039.7903 0011687 225.1790 134.8479 14.90583400263451 NANOSATCBR1 1 40024U 14033Q 19115.36994796 .00000258 00000-0 32794-4 0 9995 2 40024 097.9135 037.3470 0010963 228.5808 131.4468 14.89803891262831 EO-79 1 40025U 14033R 19115.73558787 .00000266 00000-0 34290-4 0 9995 2 40025 97.9063 35.5062 0011195 233.6540 126.3644 14.88909708263290 DTUSAT-2 1 40030U 14033W 19115.31360214 .00000243 00000-0 32226-4 0 9993 2 40030 097.8987 033.3343 0010665 229.9568 130.0714 14.88505553262656 EO-80 1 40032U 14033Y 19115.72038905 .00000259 00000-0 33994-4 0 9999 2 40032 97.8993 33.7409 0010646 229.1831 130.8463 14.88447019263210 ANTELSAT 1 40034U 14033AA 19115.53733097 .00000169 00000-0 32631-4 0 9991 2 40034 097.7687 344.9912 0057249 271.4149 088.0503 14.74076988260167 VELOX-1 1 40057U 14034E 19115.70724654 .00000217 00000-0 37935-4 0 9991 2 40057 98.2268 237.6572 0012059 52.8903 307.3400 14.77630051259792 DAURIA DX 1 1 40071U 14037C 19115.85208979 .00000078 00000-0 17544-4 0 9992 2 40071 98.4176 267.0124 0009450 45.3667 314.8326 14.81255068259283 UKUBE-1 1 40074U 14037F 19115.89283647 .00000304 00000-0 43754-4 0 9998 2 40074 98.4302 274.8192 0005975 40.7439 319.4238 14.84015214259678 HODOYOSHI-1 1 40299U 14070B 19115.78738148 .00000517 00000-0 24714-4 0 9994 2 40299 97.3495 196.6589 0011384 227.7507 247.3401 15.23297058248067 CHUBUSAT-1 1 40300U 14070C 19115.75545476 .00000516 00000-0 25530-4 0 9990 2 40300 97.3299 191.2953 0018415 244.5865 229.9131 15.22007093247819 QSAT-EOS 1 40301U 14070D 19115.73754098 .00001362 00000-0 55799-4 0 9991 2 40301 97.3279 194.0122 0024500 226.2308 252.1941 15.25737922248067 FIREBIRD FU3 1 40377U 15003B 19115.85518328 .00001622 00000-0 68266-4 0 9990 2 40377 99.1092 85.0987 0126433 269.8830 88.7911 15.18590617233752 FIREBIRD FU4 1 40378U 15003C 19115.84256047 .00001659 00000-0 69639-4 0 9992 2 40378 99.1095 85.1571 0126646 269.8062 88.8654 15.18596051233752 GRIFEX 1 40379U 15003D 19115.84890367 .00001373 00000-0 62896-4 0 9993 2 40379 99.1079 79.5632 0134607 287.4555 71.1995 15.15338324233431 NO-84 1 40654U 15025D 19115.42507966 .00007101 00000-0 10468-3 0 06008 2 40654 054.9901 060.1145 0140114 185.3000 174.6575 15.46199418104057 NO-83 1 40655U 15025E 19115.57093500 .00032878 00000-0 19792-3 0 07154 2 40655 054.9685 315.9522 0063545 247.2816 112.1611 15.74561512105184 DEORBITSAIL 1 40719U 15032E 19115.58460607 .00000367 00000-0 59594-4 0 9997 2 40719 097.9143 008.4922 0017582 117.5396 242.7603 14.76693182204272 NUDT-PHONESAT 1 40900U 15049B 19115.81921294 .00001942 00000-0 86569-4 0 9999 2 40900 97.4391 125.6896 0013631 23.3137 53.8167 15.22560678199469 XW-2A 1 40903U 15049E 19115.90996137 .00001673 00000-0 41689-4 0 9995 2 40903 97.3439 158.3576 0012968 349.4764 110.8344 15.41638690201963 XW-2C 1 40906U 15049H 19115.72806480 .00000770 00000-0 43945-4 0 9993 2 40906 97.4672 118.7047 0016089 32.2034 53.8927 15.15601971198820 XW-2D 1 40907U 15049J 19115.71249189 .00000537 00000-0 31537-4 0 9995 2 40907 97.4656 118.3695 0015511 30.2813 57.0965 15.15782106198839 LILACSAT-2 1 40908U 15049K 19115.71994825 .00000368 00000-0 23970-4 0 9994 2 40908 97.4781 117.3106 0017100 34.7132 51.7636 15.13757691198648 XW-2E 1 40909U 15049L 19115.71105524 .00000830 00000-0 44482-4 0 9990 2 40909 97.4602 121.0411 0014803 27.3070 61.3314 15.17661338199005 XW-2F 1 40910U 15049M 19115.85599086 .00001052 00000-0 56218-4 0 9994 2 40910 97.4622 120.3883 0015606 23.9829 60.0610 15.17178199198855 XW-2B 1 40911U 15049N 19115.74228362 .00000714 00000-0 40902-4 0 9996 2 40911 97.4676 119.0310 0015245 31.4849 53.5973 15.15715106198739 DCBB 1 40912U 15049P 19115.77496291 .00000937 00000-0 47324-4 0 9990 2 40912 97.4509 123.8308 0015599 8.3597 97.5397 15.19472885199120 TW-1C 1 40926U 15051B 19115.60700985 .00009757 00000-0 14926-3 0 9998 2 40926 97.1417 161.8759 0007792 198.0938 284.7940 15.54548571201756 TW-1A 1 40928U 15051D 19115.77813091 .00002580 00000-0 65694-4 0 9997 2 40928 97.1505 148.2710 0009107 270.5654 179.0324 15.40442171200873 IO-86 1 40931U 15052B 19113.08548099 .00000700 00000-0 84772-5 0 9998 2 40931 5.9967 100.2156 0012425 70.8701 289.2683 14.76604576192889 LQSat 1 40958U 15057A 19115.76635131 .00000019 00000-0 10552-4 0 9990 2 40958 97.9022 186.4080 0019328 57.2574 303.0494 14.73074659190860 AO-85 1 40967U 15058D 19114.23305703 .00000072 00000-0 25939-4 0 06666 2 40967 064.7784 326.7893 0205916 220.1058 138.4694 14.75915677099558 ATHENOXAT-1 1 41168U 15077C 19113.75692168 .00001848 00000-0 62870-4 0 9997 2 41168 14.9877 265.9683 0011729 35.1379 324.9714 15.13508248185499 ChubuSat-2 1 41338U 16012B 19115.46291762 .00000317 00000-0 17928-4 0 9995 2 41338 031.0022 129.3928 0013820 285.9624 073.9488 15.00128740174765 ChubuSat-3 1 41339U 16012C 19115.43878141 .00000288 00000-0 15638-4 0 9998 2 41339 031.0091 127.7111 0013790 293.6237 066.2951 15.00305615174757 Horyu-4 1 41340U 16012D 19115.38303996 .00000463 00000-0 28465-4 0 9992 2 41340 31.0042 119.9932 0014051 310.4389 49.5021 15.01226713174840 OUFTI-1 1 41458U 16025C 19115.49500990 .00002133 00000-0 11204-3 0 9999 2 41458 98.1030 199.5969 0167655 178.7532 181.3936 15.05617359164426 e-st@r-II 1 41459U 16025D 19115.83116118 .00002235 00000-0 11783-3 0 9998 2 41459 98.1022 199.6418 0168994 178.9146 181.2459 15.05276157164446 AAUSAT4 1 41460U 16025E 19115.47456090 .00001825 00000-0 95434-4 0 9996 2 41460 98.0972 200.3770 0158809 173.1933 187.1486 15.07069629164505 LO-87 1 41557U 16033B 19115.85592583 .00001411 00000-0 55791-4 0 9995 2 41557 97.4173 203.6761 0015356 124.7852 235.4834 15.27070011161875 NuSat2 1 41558U 16033C 19115.82651772 .00001495 00000-0 55678-4 0 9995 2 41558 97.4197 204.5192 0014367 125.9879 234.2696 15.28971286161905 Lapan A3 1 41603U 16040E 19115.85436191 .00000003 00000-0 32912-5 0 9994 2 41603 97.3657 175.8789 0012180 221.6253 248.9664 15.19693860157562 Swayam 1 41607U 16040J 19115.40341275 .00001442 00000-0 63954-4 0 9994 2 41607 097.3704 178.4526 0012492 216.0869 143.9526 15.23128003157618 Pratham 1 41783U 16059A 19115.77334494 .00000037 00000-0 16524-4 0 9994 2 41783 98.0726 176.5309 0033407 191.2670 168.7788 14.62985584137661 AlSat 1N 1 41789U 16059G 19115.80795378 .00000077 00000-0 23566-4 0 9994 2 41789 98.0737 178.4422 0028242 180.4956 179.6213 14.64232284137763 ScatSat 1 41790U 16059H 19115.16941028 -.00000000 00000-0 11017-4 0 9995 2 41790 098.2154 161.5468 0017465 210.6244 149.3933 14.50875530136421 TY-1 1 41844U 16066D 19115.73597436 .00001427 00000-0 61378-4 0 9994 2 41844 97.4060 123.7469 0016154 25.0913 64.8501 15.24180902136475 Pegasus-1 1 41846U 16066F 19115.31152132 .00000239 00000-0 46189-4 0 9993 2 41846 098.7175 154.6236 0368333 040.2091 322.5731 14.37537366128741 CAS-2T 1 41847U 16066G 19115.54474285 .00000055 00000-0 18378-4 0 9990 2 41847 098.7121 155.3867 0366599 036.1878 326.3523 14.37975407129216 EO-88 1 42017U 17008BX 19115.18655724 .00001523 00000-0 63210-4 0 9992 2 42017 97.4071 182.8344 0006428 17.6216 342.5244 15.25361092121616 PHOENIX 1 42706U 98067LP 19115.40492449 .00393474 83378-4 52010-3 0 9996 2 42706 51.6185 180.6740 0009619 1.3749 358.7288 16.06100813111248 ZA-AeroSat 1 42713U 98067LU 19115.45490445 .00154618 20674-4 36595-3 0 9998 2 42713 051.6273 187.9575 0007575 351.3660 008.7217 15.96393060110811 NJUST-1 1 42722U 98067MB 19115.50056906 .00075705 00000-0 26780-3 0 9995 2 42722 051.6348 194.9690 0006768 351.6461 109.5867 15.88332520109796 nSIGHT1 1 42726U 98067MF 19115.55456302 .00021335 00000-0 18353-3 0 9995 2 42726 051.6364 225.2084 0005635 328.3146 031.7511 15.69255344109313 Aoxiang-1 1 42735U 98067MQ 19115.54692568 .00101941 15000-4 32154-3 0 9997 2 42735 051.6255 192.0326 0008140 355.4267 138.3029 15.91196216110969 BeEagleSat 1 42736U 98067MR 19116.02543145 .03167706 12184-4 60885-3 0 9994 2 42736 51.6157 175.5493 0007910 354.4503 77.5012 16.30974229109919 CAS-4B 1 42759U 17034B 19115.85388889 .00000208 00000-0 26280-4 0 9998 2 42759 43.0176 166.4620 0012260 274.6535 56.7355 15.09546672102692 CAS-4A 1 42761U 17034D 19115.51282387 .00000087 00000-0 18854-4 0 9993 2 42761 043.0181 167.9059 0012582 272.3471 188.9373 15.09622199102646 UCLSat 1 42765U 17036A 19115.84714105 .00001249 00000-0 56632-4 0 9990 2 42765 97.3564 174.9955 0013064 63.7920 296.4659 15.22609653102273 NIUSat 1 42766U 17036B 19115.62556101 .00000994 00000-0 47775-4 0 9991 2 42766 97.3564 173.3354 0017085 54.2517 306.0304 15.20997537102010 LituanicaSAT 2 1 42768U 17036D 19115.16904298 .00002111 00000-0 93627-4 0 9996 2 42768 097.3597 173.9078 0016579 056.3771 303.9044 15.22571284102015 Aalto 1 1 42775U 17036L 19115.72638494 .00000817 00000-0 39544-4 0 9997 2 42775 97.3550 173.7487 0015379 54.3055 305.9610 15.21245984102008 URSA MAIOR 1 42776U 17036M 19115.16552304 .00000889 00000-0 42597-4 0 9992 2 42776 97.3560 173.3309 0015240 56.2470 304.0216 15.21370424101928 Max Valier Sat 1 42778U 17036P 19115.15599957 .00000995 00000-0 46615-4 0 9991 2 42778 097.3598 174.0099 0013909 060.7958 299.4668 15.21904889101944 Pegasus 1 42784U 17036V 19115.73122613 .00001174 00000-0 53780-4 0 9994 2 42784 97.3568 174.7207 0013645 64.2150 296.0492 15.22363855102050 NUDATSat 1 42787U 17036Y 19115.89342729 .00002203 00000-0 95688-4 0 9993 2 42787 97.3609 175.4708 0013830 56.1188 304.1369 15.23271253101953 SUCHAI 1 1 42788U 17036Z 19115.16118684 .00001384 00000-0 62152-4 0 9994 2 42788 097.3573 174.4250 0013226 065.7028 294.5588 15.22753248102058 SKCUBE 1 42789U 17036AA 19115.17356076 .00001317 00000-0 59458-4 0 9996 2 42789 097.3569 174.3907 0013089 065.8245 294.4358 15.22663600101977 VZLUSAT 1 1 42790U 17036AB 19115.15771572 .00001681 00000-0 73771-4 0 9996 2 42790 097.3582 174.7522 0012651 065.4268 294.8286 15.23264709101990 VENTA 1 1 42791U 17036AC 19115.14827636 .00001173 00000-0 53259-4 0 9994 2 42791 097.3568 174.4170 0012740 066.3217 293.9355 15.22684648101965 Robusta 1B 1 42792U 17036AD 19115.11027705 .00001303 00000-0 58577-4 0 9994 2 42792 97.3569 174.4621 0012686 66.7285 293.5285 15.22826309101988 D-SAT 1 42794U 17036AF 19115.38357350 .00000119 00000-0 16023-4 0 9991 2 42794 097.5459 162.4555 0125588 323.2660 035.9999 14.91064832100245 BIRD-J 1 42820U 98067MU 19115.46146530 .00667983 25864-3 58255-3 0 9997 2 42820 051.6199 184.8125 0010236 355.7433 004.3493 16.12432462103222 BIRD-G 1 42821U 98067MV 19115.40551976 .00199634 27559-4 40707-3 0 9996 2 42821 51.6194 190.4849 0008336 350.8856 9.2000 15.98965336103106 BIRD-M 1 42822U 98067MW 19115.50327929 .00344511 64919-4 49595-3 0 9998 2 42822 051.6239 187.4424 0009894 354.8281 005.2627 16.04730711103171 BIRD-B 1 42823U 98067MX 19115.46504113 .00472017 12082-3 53599-3 0 9991 2 42823 051.6199 186.3806 0010829 354.2138 005.8749 16.08450328103183 BIRD-N 1 42824U 98067MY 19115.44368357 .00303550 51820-4 47497-3 0 9997 2 42824 051.6246 188.6202 0010185 351.4582 008.6255 16.03370127103152 TechnoSat 1 42829U 17042E 19115.72052861 .00000267 00000-0 32435-4 0 9993 2 42829 97.5699 10.8279 0012903 236.6556 123.3428 14.90952038 96893 TOMSK-TPU 120 1 42910U 98067MZ 19115.88120551 .00040256 00000-0 22299-3 0 9997 2 42910 51.6366 208.8095 0006374 330.6672 133.1753 15.79125149 96512 TANYUSHA 1 1 42911U 98067NA 19115.52217443 .00072308 00000-0 28563-3 0 9999 2 42911 051.6259 203.2577 0007194 340.1900 141.9869 15.86098941096533 TANYUSHA 2 1 42912U 98067NB 19115.52750021 .00055542 00000-0 25955-3 0 9997 2 42912 051.6359 207.2836 0006134 339.2717 114.9355 15.82687959096501 TNS 0-2 1 42914U 98067ND 19115.53833908 .00045480 00000-0 24772-3 0 9992 2 42914 051.6347 211.3338 0005989 324.9190 035.1416 15.79445004096428 QIKCOM-1 1 42983U 98067NF 19115.84726239 .00003989 00000-0 57781-4 0 9995 2 42983 51.6391 250.4802 0003683 283.8394 76.2189 15.58470801 84948 AO-91 1 43017U 17073E 19115.72749686 .00000817 00000-0 69640-4 0 9994 2 43017 97.7230 39.1946 0257861 334.4768 24.3891 14.78494997 77284 EcAMSat 1 43019U 98067NG 19115.57441574 .00007100 00000-0 90265-4 0 9995 2 43019 051.6402 247.9438 0004386 263.8744 096.1750 15.60601006167275 PICSAT 1 43132U 18004X 19115.12300296 .00001351 00000-0 59678-4 0 9995 2 43132 97.4923 183.0391 0011516 87.6724 272.5831 15.23422741 71199 AO-92 1 43137U 18004AC 19115.17692170 .00001046 00000-0 46999-4 0 9993 2 43137 97.4915 183.0915 0011056 88.8268 271.4236 15.23345273 71193 TianYi 2 1 43155U 18008A 19115.84544569 .00000331 00000-0 23559-4 0 9992 2 43155 97.4884 189.5120 0018998 145.6973 322.9513 15.11044905 69691 Zhou Enlai 1 43156U 18008B 19115.87427259 .00001207 00000-0 76804-4 0 9996 2 43156 97.4941 189.4452 0016221 142.7189 323.2986 15.10551184 69674 TianYi 6 1 43158U 18008D 19115.77468206 .00000177 00000-0 14671-4 0 9993 2 43158 97.4873 188.8917 0014655 140.4892 336.7413 15.10149721 69623 S-Net G 1 43186U 18014G 19115.53709958 .00000001 00000-0 52116-5 0 9990 2 43186 097.7121 024.7694 0010946 180.2683 179.8534 14.96614485067032 S-Net H 1 43187U 18014H 19115.33635413 -.00000028 00000-0 26380-5 0 9997 2 43187 097.7119 024.5612 0010917 180.8868 179.2336 14.96614496067000 S-Net J 1 43188U 18014J 19115.26927381 -.00000052 00000-0 49275-6 0 9994 2 43188 097.7122 024.5099 0010908 181.2219 178.8978 14.96614272066995 S-Net K 1 43189U 18014K 19115.47017851 -.00000014 00000-0 38214-5 0 9998 2 43189 097.7118 024.6907 0010925 180.4304 179.6910 14.96614021065575 FMN 1 1 43192U 18015A 19115.56438210 .00001881 00000-0 80178-4 0 9996 2 43192 097.3899 244.0343 0017718 121.0604 239.2376 15.24053895068079 Shaonian Xing 1 43199U 18015H 19115.52886642 .00001547 00000-0 65336-4 0 9993 2 43199 097.3689 243.2369 0018441 132.2831 227.9974 15.24621486068112 1KUNS-PF 1 43466U 98067NP 19115.58225938 .00021264 00000-0 22355-3 0 9997 2 43466 051.6374 248.6996 0001090 288.8541 071.2336 15.64266934054446 UBAKUSAT 1 43467U 98067NQ 19115.61509821 .00013368 00000-0 15816-3 0 9998 2 43467 51.6373 251.1641 0002325 230.5167 129.5622 15.61614680 54427 Irazu 1 43468U 98067NR 19115.33799374 .00026663 00000-0 25635-3 0 9994 2 43468 51.6367 247.8062 0001399 290.4407 69.6439 15.66374619154423 EnduroSat One 1 43551U 98067NZ 19115.56822273 .00015971 00000-0 18939-3 0 9996 2 43551 051.6377 253.8475 0006032 302.2426 057.7982 15.61372207044610 EQUISat 1 43552U 98067PA 19115.63895915 .00013472 00000-0 16660-3 0 9991 2 43552 51.6387 254.3317 0006234 302.5626 57.4765 15.60432106 44577 UiTMSat 1 1 43589U 98067PD 19115.57923144 .00014731 00000-0 18186-3 0 9994 2 43589 051.6363 255.3990 0005610 310.0589 049.9911 15.60390656040295 Maya 1 1 43590U 98067PE 19115.63907498 .00015069 00000-0 18571-3 0 9990 2 43590 51.6364 255.0508 0005692 308.5631 51.4852 15.60414878 40239 Bhutan 1 1 43591U 98067PF 19115.63164261 .00014611 00000-0 17990-3 0 9990 2 43591 51.6378 255.0145 0005847 310.7840 49.2645 15.60468060 40238 SiriusSat 1 1 43595U 98067PG 19115.39976307 .00014546 00000-0 18403-3 0 9996 2 43595 051.6365 257.2007 0003549 265.9286 094.1301 15.59762251039368 SiriusSat 2 1 43596U 98067PH 19115.55265505 .00013757 00000-0 17545-3 0 9995 2 43596 051.6376 256.7488 0004124 266.9785 093.0736 15.59601755039386 Tanusha-3 1 43597U 98067PJ 19115.53314168 .00018241 00000-0 22029-3 0 9990 2 43597 051.6361 255.8204 0003815 282.3445 077.7121 15.60791036039390 SurfSat 1 43614U 18070B 19115.63803788 .00002553 00000-0 69858-4 0 9999 2 43614 93.0280 341.3758 0017566 146.1422 214.0957 15.37280399 34101 CP-7 DAVE 1 43615U 18070C 19115.57617280 .00002165 00000-0 59372-4 0 9992 2 43615 093.0284 341.3526 0017605 146.1894 214.0485 15.37218934034096 ELFIN-B 1 43616U 18070D 19115.53867800 .00003601 00000-0 96988-4 0 9994 2 43616 093.0249 341.2588 0018329 149.9220 210.3090 15.37724447034095 ELFIN-A 1 43617U 18070E 19115.53380688 .00003348 00000-0 90142-4 0 9993 2 43617 093.0303 341.4297 0017593 146.6562 213.5804 15.37754643034090 STARS-Me Mother 1 43640U 98067PQ 19115.42128939 .00009377 00000-0 13087-3 0 9990 2 43640 51.6382 259.6128 0005365 253.7845 106.2557 15.57636909 31269 CubeBel 1 1 43666U 18083E 19115.75396318 .00000850 00000-0 45793-4 0 9999 2 43666 97.5241 140.5913 0015787 23.4671 96.8154 15.17459574 27100 Changshagaoxin 1 43669U 18083H 19115.55411432 .00000928 00000-0 50738-4 0 9996 2 43669 097.5109 139.8630 0011374 017.6405 342.5221 15.16706892027025 Ten-Koh 1 43677U 18084G 19115.29961215 -.00000108 00000-0 -53078-5 0 9999 2 43677 97.8412 229.4044 0017131 99.8305 260.4695 14.90150245 26519 PO-101 1 43678U 18084H 19115.80306405 -.00000110 00000-0 -53013-5 0 9993 2 43678 97.8431 230.3044 0011273 117.5091 242.7292 14.91540325 26613 IRVINE 01 1 43693U 18088D 19115.41322896 .00002644 00000-0 11641-3 0 9994 2 43693 085.0370 353.9632 0020164 038.2750 321.9918 15.21149305025112 QO-100 1 43700U 18090A 19115.69206255 .00000131 00000-0 00000 0 0 9998 2 43700 0.0127 225.6544 0001534 203.7095 58.9961 1.00271746 1752 Reaktor Hello World 1 43743U 18096AA 19115.82398507 .00001123 00000-0 45734-4 0 9998 2 43743 97.4627 185.8725 0018870 160.6114 309.9782 15.26470208 22510 MinXSS-2 1 43758U 18099A 19115.41951244 .00000767 00000-0 74582-4 0 9991 2 43758 097.7482 188.1050 0016760 144.2473 215.9874 14.95363075021321 AO-95 1 43770U 18099N 19115.14464821 .00000695 00000-0 69227-4 0 9995 2 43770 97.7483 187.7016 0015544 150.9344 209.2745 14.94725555 21274 RANGE-B 1 43772U 18099Q 19115.20426508 .00000667 00000-0 66445-4 0 9992 2 43772 97.7533 187.8668 0015438 139.0833 221.1549 14.94820101 21277 RANGE-A 1 43773U 18099R 19115.20585928 .00000503 00000-0 51505-4 0 9995 2 43773 97.7430 187.6855 0014745 138.8544 221.3790 14.94772155 21271 MOVE-II 1 43780U 18099Y 19115.45653188 .00000297 00000-0 32379-4 0 9992 2 43780 097.7469 188.0316 0014592 148.3054 211.9048 14.94993097021305 SNUSat 2 1 43782U 18099AA 19115.45146280 -.00000088 00000-0 -27929-5 0 9990 2 43782 097.7478 188.0614 0013883 137.8706 222.3584 14.95014911021319 SnugLite 1 43784U 18099AC 19115.17665309 -.00000090 00000-0 -29063-5 0 9993 2 43784 97.7444 187.7411 0016060 146.7084 213.5150 14.95092220 21289 ITASat 1 1 43786U 18099AE 19115.44275516 -.00000130 00000-0 -65487-5 0 9997 2 43786 097.7497 188.1078 0016185 144.8415 215.3877 14.95103944021325 EAGLET 1 1 43790U 18099AJ 19115.20562412 .00000553 00000-0 55134-4 0 9994 2 43790 97.7487 187.9398 0014415 150.1294 210.0752 14.95476936 20989 ESEO 1 43792U 18099AL 19115.20324162 .00000322 00000-0 34259-4 0 9993 2 43792 97.7465 187.9117 0014243 147.3143 212.8962 14.95486218 21041 CSIM 1 43793U 18099AM 19115.19575130 .00000477 00000-0 48081-4 0 9994 2 43793 97.7424 187.8240 0014268 145.8810 214.3331 14.95623347 21014 Astrocast 0.1 1 43798U 18099AS 19115.18303394 -.00000296 00000-0 -21324-4 0 9991 2 43798 97.7474 187.9440 0013566 131.6402 228.5983 14.95710759 21279 JO-97 1 43803U 18099AX 19115.83363417 .00000233 00000-0 26391-4 0 9990 2 43803 97.7457 188.4363 0016193 144.1452 216.0859 14.95227913 21370 Suomi 100 1 43804U 18099AY 19115.76626804 .00000228 00000-0 25953-4 0 9992 2 43804 97.7455 188.3689 0016249 144.4889 215.7417 14.95229491 21377 Al Farabi 2 1 43805U 18099AZ 19115.83040561 .00000458 00000-0 46801-4 0 9991 2 43805 97.7457 188.4399 0016357 144.4451 215.7863 14.95274539 21383 PWSat 2 1 43814U 18099BJ 19115.88331913 .00013636 00000-0 11570-2 0 9995 2 43814 97.7722 188.9107 0014409 135.1870 225.0649 14.97962422 20795 CHOMPTT 1 43855U 18104G 19115.66502005 .00000759 00000-0 31071-4 0 9997 2 43855 85.0343 92.1525 0018660 145.9321 214.3155 15.22271659 19809 ISAT 1 43879U 18111D 19115.54654746 .00000480 00000-0 47947-4 0 9998 2 43879 097.7209 024.3281 0012638 199.1952 160.8795 14.95942827017840 UWE-4 1 43880U 18111E 19115.72766291 -.00000161 00000-0 -91143-5 0 9995 2 43880 97.7221 24.5667 0011647 199.9918 160.0849 14.96188231 15881 Sparrow 1 43881U 18111F 19115.45661538 -.00000223 00000-0 -14611-4 0 9997 2 43881 097.7227 024.3132 0011714 199.5519 160.5255 14.96235220017835 Lume 1 1 43908U 18111AJ 19115.44429557 .00000992 00000-0 43333-4 0 9993 2 43908 097.2936 022.1660 0021637 178.3536 181.7777 15.24213223018182 FO-98 1 43933U 19003B 19115.76436711 .00000625 00000-0 30661-4 0 9990 2 43933 97.2862 175.0518 0016075 275.2026 208.6185 15.21545214 14856 FO-99 1 43937U 19003F 19115.71148421 .00001006 00000-0 44902-4 0 9994 2 43937 97.2818 175.2000 0022697 262.5261 214.2948 15.23425242 14867 Delphini 1 1 44030U 98067PW 19115.65856986 .00011489 00000-0 17170-3 0 9993 2 44030 51.6384 261.1953 0004546 304.8506 55.2057 15.55509480 13136 MYSat 1 1 44045U 18092F 19115.61188672 .00002588 00000-0 86963-4 0 9992 2 44045 051.6418 272.7292 0011455 245.1004 114.8783 15.34668737010932 AstroCast 0.2 1 44083U 19018F 19115.74095146 .00000610 00000-0 30335-4 0 9996 2 44083 97.4738 176.1365 0013694 190.5919 169.5030 15.21313839 3716 AISTechSat 3 1 44103U 19018AB 19115.72169882 .00000905 00000-0 42042-4 0 9991 2 44103 97.4616 176.1059 0012834 210.1351 149.9148 15.22519257 3702 AISat 1 1 44104U 19018AC 19115.72755520 .00000722 00000-0 26199-4 0 9994 2 44104 97.5148 176.5238 0057656 257.6007 101.8777 15.30359325 3759 /EX